Time,TemperatureF,DewpointF,PressureIn,WindDirection,WindDirectionDegrees,WindSpeedMPH,WindSpeedGustMPH,Humidity,HourlyPrecipIn,Conditions,Clouds,dailyrainin,SoftwareType,DateUTC
2013-08-02 00:02:00,56.4,49.3,29.99,North,354,0.0,1.0,77,0.00,,---,0.00,VWS V14.01,2013-08-02 07:02:00,
2013-08-02 00:07:00,56.3,49.2,29.95,North,354,0.0,1.0,77,0.00,,---,0.00,VWS V14.01,2013-08-02 07:07:00,
2013-08-02 00:12:00,56.2,49.4,29.95,North,354,0.0,2.0,78,0.00,,---,0.00,VWS V14.01,2013-08-02 07:12:00,
2013-08-02 00:17:00,56.1,49.3,29.97,North,354,0.0,2.0,78,0.00,,---,0.00,VWS V14.01,2013-08-02 07:17:00,
2013-08-02 00:22:00,56.1,49.3,29.96,North,354,0.0,2.0,78,0.00,,---,0.00,VWS V14.01,2013-08-02 07:22:00,
2013-08-02 00:27:00,56.1,49.7,29.96,North,354,0.0,2.0,79,0.00,,---,0.00,VWS V14.01,2013-08-02 07:27:00,
2013-08-02 00:32:00,55.9,49.2,29.97,North,354,0.0,0.0,78,0.00,,---,0.00,VWS V14.01,2013-08-02 07:32:00,
2013-08-02 00:37:00,56.0,49.6,29.96,North,354,0.0,1.0,79,0.00,,---,0.00,VWS V14.01,2013-08-02 07:37:00,
2013-08-02 00:42:00,55.8,49.4,29.99,North,355,0.0,2.0,79,0.00,,---,0.00,VWS V14.01,2013-08-02 07:42:00,
2013-08-02 00:47:00,55.8,49.4,29.96,North,355,0.0,2.0,79,0.00,,---,0.00,VWS V14.01,2013-08-02 07:47:00,
2013-08-02 00:52:00,55.6,49.2,29.97,North,355,2.0,3.0,79,0.00,,---,0.00,VWS V14.01,2013-08-02 07:52:00,
2013-08-02 00:57:00,55.8,50.1,29.96,North,354,0.0,3.0,81,0.00,,---,0.00,VWS V14.01,2013-08-02 07:57:00,
2013-08-02 01:02:00,55.6,49.9,29.95,North,355,0.0,3.0,81,0.00,,---,0.00,VWS V14.01,2013-08-02 08:02:00,
2013-08-02 01:08:00,55.7,50.3,29.94,North,354,1.0,3.0,82,0.00,,---,0.00,VWS V14.01,2013-08-02 08:08:00,
2013-08-02 01:12:00,55.6,49.9,29.96,North,354,1.0,3.0,81,0.00,,---,0.00,VWS V14.01,2013-08-02 08:12:00,
2013-08-02 01:18:00,55.5,49.4,29.95,North,354,0.0,3.0,80,0.00,,---,0.00,VWS V14.01,2013-08-02 08:18:00,
2013-08-02 01:23:00,55.3,49.2,29.94,North,354,0.0,3.0,80,0.00,,---,0.00,VWS V14.01,2013-08-02 08:23:00,
2013-08-02 01:28:00,55.0,49.0,29.98,North,354,0.0,3.0,80,0.00,,---,0.00,VWS V14.01,2013-08-02 08:28:00,
2013-08-02 01:33:00,54.9,49.2,29.95,North,355,0.0,3.0,81,0.00,,---,0.00,VWS V14.01,2013-08-02 08:33:00,
2013-08-02 01:38:00,55.0,49.3,29.96,North,354,0.0,3.0,81,0.00,,---,0.00,VWS V14.01,2013-08-02 08:38:00,
2013-08-02 01:43:00,54.8,48.8,29.97,North,354,1.0,3.0,80,0.00,,---,0.00,VWS V14.01,2013-08-02 08:43:00,
2013-08-02 01:48:00,54.7,49.3,29.96,North,354,1.0,3.0,82,0.00,,---,0.00,VWS V14.01,2013-08-02 08:48:00,
2013-08-02 01:53:00,54.7,49.0,29.97,North,354,0.0,3.0,81,0.00,,---,0.00,VWS V14.01,2013-08-02 08:53:00,
2013-08-02 01:58:00,54.6,49.2,29.96,North,354,1.0,4.0,82,0.00,,---,0.00,VWS V14.01,2013-08-02 08:58:00,
2013-08-02 02:03:00,54.7,49.3,29.93,North,354,2.0,5.0,82,0.00,,---,0.00,VWS V14.01,2013-08-02 09:03:00,
2013-08-02 02:08:00,54.6,49.5,29.93,North,355,3.0,5.0,83,0.00,,---,0.00,VWS V14.01,2013-08-02 09:08:00,
2013-08-02 02:13:00,54.8,50.1,29.93,North,355,2.0,5.0,84,0.00,,---,0.00,VWS V14.01,2013-08-02 09:13:00,
2013-08-02 02:18:00,54.9,50.5,29.95,North,354,0.0,6.0,85,0.00,,---,0.00,VWS V14.01,2013-08-02 09:18:00,
2013-08-02 02:23:00,54.9,50.5,29.95,North,354,4.0,6.0,85,0.00,,---,0.00,VWS V14.01,2013-08-02 09:23:00,
2013-08-02 02:28:00,54.9,50.5,29.94,North,354,4.0,6.0,85,0.00,,---,0.00,VWS V14.01,2013-08-02 09:28:00,
2013-08-02 02:34:00,54.9,50.5,29.94,North,354,1.0,4.0,85,0.00,,---,0.00,VWS V14.01,2013-08-02 09:34:00,
2013-08-02 02:39:00,55.0,50.6,29.94,North,354,0.0,4.0,85,0.00,,---,0.00,VWS V14.01,2013-08-02 09:39:00,
2013-08-02 02:44:00,54.8,50.7,29.94,North,352,3.0,4.0,86,0.00,,---,0.00,VWS V14.01,2013-08-02 09:44:00,
2013-08-02 02:49:00,54.8,50.7,29.94,NNW,329,4.0,4.0,86,0.00,,---,0.00,VWS V14.01,2013-08-02 09:49:00,
2013-08-02 02:54:00,54.8,51.0,29.92,NNW,333,5.0,6.0,87,0.00,,---,0.00,VWS V14.01,2013-08-02 09:54:00,
2013-08-02 02:59:00,54.8,51.3,29.93,NW,314,3.0,6.0,88,0.00,,---,0.00,VWS V14.01,2013-08-02 09:59:00,
2013-08-02 03:04:00,54.7,51.2,29.95,NW,311,0.0,5.0,88,0.00,,---,0.00,VWS V14.01,2013-08-02 10:04:00,
2013-08-02 03:09:00,54.7,51.2,29.94,NW,311,2.0,5.0,88,0.00,,---,0.00,VWS V14.01,2013-08-02 10:09:00,
2013-08-02 03:14:00,54.6,50.8,29.91,NW,311,1.0,5.0,87,0.00,,---,0.00,VWS V14.01,2013-08-02 10:14:00,
2013-08-02 03:19:00,54.6,51.1,29.93,NW,313,1.0,5.0,88,0.00,,---,0.00,VWS V14.01,2013-08-02 10:19:00,
2013-08-02 03:24:00,54.4,50.9,29.92,NW,313,0.0,5.0,88,0.00,,---,0.00,VWS V14.01,2013-08-02 10:24:00,
2013-08-02 03:29:00,54.5,51.0,29.95,NW,313,2.0,5.0,88,0.00,,---,0.00,VWS V14.01,2013-08-02 10:29:00,
2013-08-02 03:34:00,54.3,50.2,29.95,NW,313,0.0,0.0,86,0.00,,---,0.00,VWS V14.01,2013-08-02 10:34:00,
2013-08-02 03:39:00,54.1,50.0,29.95,NW,313,0.0,0.0,86,0.00,,---,0.00,VWS V14.01,2013-08-02 10:39:00,
2013-08-02 03:44:00,53.9,49.8,29.92,NW,313,0.0,0.0,86,0.00,,---,0.00,VWS V14.01,2013-08-02 10:44:00,
2013-08-02 03:49:00,53.8,49.7,29.92,NW,313,0.0,0.0,86,0.00,,---,0.00,VWS V14.01,2013-08-02 10:49:00,
2013-08-02 03:54:00,53.6,49.5,29.93,NW,313,0.0,2.0,86,0.00,,---,0.00,VWS V14.01,2013-08-02 10:54:00,
2013-08-02 03:59:00,53.6,49.2,29.91,NW,313,1.0,3.0,85,0.00,,---,0.00,VWS V14.01,2013-08-02 10:59:00,
2013-08-02 04:04:00,53.6,49.2,29.91,NW,313,1.0,3.0,85,0.00,,---,0.00,VWS V14.01,2013-08-02 11:04:00,
2013-08-02 04:10:00,53.5,49.1,29.92,NW,313,0.0,3.0,85,0.00,,---,0.00,VWS V14.01,2013-08-02 11:10:00,
2013-08-02 04:15:00,53.6,49.5,29.93,NW,313,0.0,3.0,86,0.00,,---,0.00,VWS V14.01,2013-08-02 11:15:00,
2013-08-02 04:20:00,53.5,49.1,29.93,NW,313,0.0,3.0,85,0.00,,---,0.00,VWS V14.01,2013-08-02 11:20:00,
2013-08-02 04:25:00,53.4,49.0,29.92,NW,313,1.0,3.0,85,0.00,,---,0.00,VWS V14.01,2013-08-02 11:25:00,
2013-08-02 04:30:00,53.3,48.9,29.95,NW,313,0.0,0.0,85,0.00,,---,0.00,VWS V14.01,2013-08-02 11:30:00,
2013-08-02 04:35:00,53.2,48.8,29.95,NW,313,0.0,1.0,85,0.00,,---,0.00,VWS V14.01,2013-08-02 11:35:00,
2013-08-02 04:40:00,53.2,49.1,29.93,NW,313,2.0,2.0,86,0.00,,---,0.00,VWS V14.01,2013-08-02 11:40:00,
2013-08-02 04:45:00,53.2,48.8,29.92,NW,313,1.0,2.0,85,0.00,,---,0.00,VWS V14.01,2013-08-02 11:45:00,
2013-08-02 04:50:00,53.0,48.6,29.93,NW,313,1.0,3.0,85,0.00,,---,0.00,VWS V14.01,2013-08-02 11:50:00,
2013-08-02 04:56:00,53.0,48.6,29.95,NW,313,1.0,3.0,85,0.00,,---,0.00,VWS V14.01,2013-08-02 11:56:00,
2013-08-02 05:01:00,53.0,48.6,29.95,NW,313,0.0,0.0,85,0.00,,---,0.00,VWS V14.01,2013-08-02 12:01:00,
2013-08-02 05:06:00,53.1,48.7,29.92,NW,313,0.0,2.0,85,0.00,,---,0.00,VWS V14.01,2013-08-02 12:06:00,
2013-08-02 05:11:00,52.9,48.2,29.96,NW,313,0.0,2.0,84,0.00,,---,0.00,VWS V14.01,2013-08-02 12:11:00,
2013-08-02 05:16:00,52.9,48.2,29.96,NW,313,1.0,3.0,84,0.00,,---,0.00,VWS V14.01,2013-08-02 12:16:00,
2013-08-02 05:21:00,52.7,48.0,29.93,NW,313,0.0,3.0,84,0.00,,---,0.00,VWS V14.01,2013-08-02 12:21:00,
2013-08-02 05:26:00,52.7,48.3,29.94,NW,313,0.0,3.0,85,0.00,,---,0.00,VWS V14.01,2013-08-02 12:26:00,
2013-08-02 05:31:00,52.7,48.3,29.94,NW,313,0.0,2.0,85,0.00,,---,0.00,VWS V14.01,2013-08-02 12:31:00,
2013-08-02 05:36:00,52.7,48.3,29.94,NW,313,0.0,2.0,85,0.00,,---,0.00,VWS V14.01,2013-08-02 12:36:00,
2013-08-02 05:41:00,52.8,48.4,29.95,NW,313,2.0,3.0,85,0.00,,---,0.00,VWS V14.01,2013-08-02 12:41:00,
2013-08-02 05:47:00,52.9,48.5,29.96,NW,313,0.0,3.0,85,0.00,,---,0.00,VWS V14.01,2013-08-02 12:47:00,
2013-08-02 05:52:00,52.7,48.3,29.95,NW,313,0.0,3.0,85,0.00,,---,0.00,VWS V14.01,2013-08-02 12:52:00,
2013-08-02 05:57:00,52.7,48.3,29.96,NW,313,0.0,3.0,85,0.00,,---,0.00,VWS V14.01,2013-08-02 12:57:00,
2013-08-02 06:02:00,52.7,48.3,29.95,NW,313,0.0,2.0,85,0.00,,---,0.00,VWS V14.01,2013-08-02 13:02:00,
2013-08-02 06:07:00,52.5,48.1,29.94,NW,313,0.0,2.0,85,0.00,,---,0.00,VWS V14.01,2013-08-02 13:07:00,
2013-08-02 06:12:00,52.4,48.0,29.94,NW,313,0.0,2.0,85,0.00,,---,0.00,VWS V14.01,2013-08-02 13:12:00,
2013-08-02 06:17:00,52.5,48.1,29.94,NW,313,2.0,3.0,85,0.00,,---,0.00,VWS V14.01,2013-08-02 13:17:00,
2013-08-02 06:22:00,52.5,48.4,29.96,NW,313,1.0,3.0,86,0.00,,---,0.00,VWS V14.01,2013-08-02 13:22:00,
2013-08-02 06:27:00,52.5,48.4,29.93,NW,313,0.0,3.0,86,0.00,,---,0.00,VWS V14.01,2013-08-02 13:27:00,
2013-08-02 06:32:00,52.8,49.0,29.96,NW,313,1.0,4.0,87,0.00,,---,0.00,VWS V14.01,2013-08-02 13:32:00,
2013-08-02 06:37:00,53.0,49.5,29.94,NW,313,0.0,4.0,88,0.00,,---,0.00,VWS V14.01,2013-08-02 13:37:00,
2013-08-02 06:42:00,53.2,49.7,29.95,NW,313,1.0,4.0,88,0.00,,---,0.00,VWS V14.01,2013-08-02 13:42:00,
2013-08-02 06:47:00,53.3,49.8,29.95,NW,313,0.0,4.0,88,0.00,,---,0.00,VWS V14.01,2013-08-02 13:47:00,
2013-08-02 06:52:00,53.4,49.6,29.95,NW,313,0.0,4.0,87,0.00,,---,0.00,VWS V14.01,2013-08-02 13:52:00,
2013-08-02 06:57:00,53.2,49.4,29.96,NW,313,0.0,4.0,87,0.00,,---,0.00,VWS V14.01,2013-08-02 13:57:00,
2013-08-02 07:03:00,53.0,48.9,29.96,NW,313,0.0,0.0,86,0.00,,---,0.00,VWS V14.01,2013-08-02 14:03:00,
2013-08-02 07:07:00,52.9,49.1,29.97,NW,313,0.0,2.0,87,0.00,,---,0.00,VWS V14.01,2013-08-02 14:07:00,
2013-08-02 07:12:00,52.8,48.7,29.94,NW,313,0.0,2.0,86,0.00,,---,0.00,VWS V14.01,2013-08-02 14:12:00,
2013-08-02 07:18:00,52.6,48.5,29.98,NW,313,0.0,2.0,86,0.00,,---,0.00,VWS V14.01,2013-08-02 14:18:00,
2013-08-02 07:23:00,52.6,48.8,29.96,NW,313,0.0,2.0,87,0.00,,---,0.00,VWS V14.01,2013-08-02 14:23:00,
2013-08-02 07:28:00,52.7,49.0,29.97,NW,313,0.0,2.0,87,0.00,,---,0.00,VWS V14.01,2013-08-02 14:28:00,
2013-08-02 07:33:00,52.8,49.3,29.95,NW,313,1.0,2.0,88,0.00,,---,0.00,VWS V14.01,2013-08-02 14:33:00,
2013-08-02 07:38:00,53.2,49.7,29.97,NW,313,0.0,3.0,88,0.00,,---,0.00,VWS V14.01,2013-08-02 14:38:00,
2013-08-02 07:43:00,53.4,50.2,29.97,NW,313,3.0,3.0,89,0.00,,---,0.00,VWS V14.01,2013-08-02 14:43:00,
2013-08-02 07:48:00,53.8,50.6,29.99,NW,313,2.0,4.0,89,0.00,,---,0.00,VWS V14.01,2013-08-02 14:48:00,
2013-08-02 07:53:00,54.1,50.6,29.96,NW,313,1.0,4.0,88,0.00,,---,0.00,VWS V14.01,2013-08-02 14:53:00,
2013-08-02 07:58:00,54.3,51.1,29.95,NW,313,1.0,4.0,89,0.00,,---,0.00,VWS V14.01,2013-08-02 14:58:00,
2013-08-02 08:03:00,54.6,51.1,29.96,NW,313,0.0,3.0,88,0.00,,---,0.00,VWS V14.01,2013-08-02 15:03:00,
2013-08-02 08:08:00,54.9,51.4,29.95,NW,313,2.0,3.0,88,0.00,,---,0.00,VWS V14.01,2013-08-02 15:08:00,
2013-08-02 08:13:00,55.0,51.2,29.97,NW,313,0.0,3.0,87,0.00,,---,0.00,VWS V14.01,2013-08-02 15:13:00,
2013-08-02 08:19:00,55.4,51.6,29.99,NW,313,1.0,3.0,87,0.00,,---,0.00,VWS V14.01,2013-08-02 15:19:00,
2013-08-02 08:24:00,55.6,51.5,29.97,NW,313,0.0,3.0,86,0.00,,---,0.00,VWS V14.01,2013-08-02 15:24:00,
2013-08-02 08:29:00,56.0,51.6,29.98,NW,313,0.0,3.0,85,0.00,,---,0.00,VWS V14.01,2013-08-02 15:29:00,
2013-08-02 08:34:00,56.2,51.8,29.96,NW,313,0.0,2.0,85,0.00,,---,0.00,VWS V14.01,2013-08-02 15:34:00,
2013-08-02 08:39:00,56.7,52.2,29.96,NW,313,0.0,3.0,85,0.00,,---,0.00,VWS V14.01,2013-08-02 15:39:00,
2013-08-02 08:44:00,57.0,51.9,29.97,NW,313,2.0,3.0,83,0.00,,---,0.00,VWS V14.01,2013-08-02 15:44:00,
2013-08-02 08:49:00,57.3,51.9,29.98,NW,313,0.0,4.0,82,0.00,,---,0.00,VWS V14.01,2013-08-02 15:49:00,
2013-08-02 08:54:00,57.6,52.2,29.98,NW,313,0.0,4.0,82,0.00,,---,0.00,VWS V14.01,2013-08-02 15:54:00,
2013-08-02 08:59:00,57.9,52.5,29.97,NW,313,0.0,4.0,82,0.00,,---,0.00,VWS V14.01,2013-08-02 15:59:00,
2013-08-02 09:04:00,58.2,52.4,29.99,NW,313,0.0,3.0,81,0.00,,---,0.00,VWS V14.01,2013-08-02 16:04:00,
2013-08-02 09:09:00,58.5,52.4,29.97,NW,313,1.0,3.0,80,0.00,,---,0.00,VWS V14.01,2013-08-02 16:09:00,
2013-08-02 09:14:00,59.0,52.8,29.99,NW,313,0.0,3.0,80,0.00,,---,0.00,VWS V14.01,2013-08-02 16:14:00,
2013-08-02 09:19:00,59.3,53.1,29.97,NW,313,0.0,3.0,80,0.00,,---,0.00,VWS V14.01,2013-08-02 16:19:00,
2013-08-02 09:24:00,59.7,53.2,29.95,NW,313,0.0,3.0,79,0.00,,---,0.00,VWS V14.01,2013-08-02 16:24:00,
2013-08-02 09:30:00,60.2,53.0,29.96,NW,313,0.0,3.0,77,0.00,,---,0.00,VWS V14.01,2013-08-02 16:30:00,
2013-08-02 09:35:00,60.7,53.8,29.96,NW,313,2.0,2.0,78,0.00,,---,0.00,VWS V14.01,2013-08-02 16:35:00,
2013-08-02 09:40:00,61.3,53.7,29.95,NW,313,0.0,3.0,76,0.00,,---,0.00,VWS V14.01,2013-08-02 16:40:00,
2013-08-02 09:45:00,61.7,54.1,29.96,NW,313,2.0,3.0,76,0.00,,---,0.00,VWS V14.01,2013-08-02 16:45:00,
2013-08-02 09:50:00,62.2,53.8,29.98,NW,313,1.0,4.0,74,0.00,,---,0.00,VWS V14.01,2013-08-02 16:50:00,
2013-08-02 09:55:00,62.8,54.4,29.96,NNW,344,3.0,5.0,74,0.00,,---,0.00,VWS V14.01,2013-08-02 16:55:00,
2013-08-02 10:00:00,63.4,53.8,29.97,NNW,328,2.0,3.0,71,0.00,,---,0.00,VWS V14.01,2013-08-02 17:00:00,
2013-08-02 10:05:00,63.9,53.9,29.97,North,352,2.0,5.0,70,0.00,,---,0.00,VWS V14.01,2013-08-02 17:05:00,
2013-08-02 10:10:00,64.2,54.2,29.97,North,359,3.0,6.0,70,0.00,,---,0.00,VWS V14.01,2013-08-02 17:10:00,
2013-08-02 10:15:00,64.5,54.5,29.96,North,359,1.0,6.0,70,0.00,,---,0.00,VWS V14.01,2013-08-02 17:15:00,
2013-08-02 10:20:00,64.8,54.4,29.95,North,359,1.0,6.0,69,0.00,,---,0.00,VWS V14.01,2013-08-02 17:20:00,
2013-08-02 10:25:00,64.8,53.6,29.98,North,357,1.0,6.0,67,0.00,,---,0.00,VWS V14.01,2013-08-02 17:25:00,
2013-08-02 10:30:00,65.1,53.9,29.97,North,356,1.0,3.0,67,0.00,,---,0.00,VWS V14.01,2013-08-02 17:30:00,
2013-08-02 10:35:00,65.3,54.1,29.96,North,355,2.0,4.0,67,0.00,,---,0.00,VWS V14.01,2013-08-02 17:35:00,
2013-08-02 10:40:00,65.7,53.2,29.94,NNW,342,4.0,6.0,64,0.00,,---,0.00,VWS V14.01,2013-08-02 17:40:00,
2013-08-02 10:45:00,65.7,53.2,29.96,NNW,348,2.0,6.0,64,0.00,,---,0.00,VWS V14.01,2013-08-02 17:45:00,
2013-08-02 10:50:00,66.1,53.2,29.98,NW,320,2.0,6.0,63,0.00,,---,0.00,VWS V14.01,2013-08-02 17:50:00,
2013-08-02 10:56:00,66.6,52.8,29.96,North,350,2.0,6.0,61,0.00,,---,0.00,VWS V14.01,2013-08-02 17:56:00,
2013-08-02 11:01:00,66.9,53.5,29.96,North,9,1.0,2.0,62,0.00,,---,0.00,VWS V14.01,2013-08-02 18:01:00,
2013-08-02 11:06:00,67.4,52.6,29.96,NW,321,1.0,6.0,59,0.00,,---,0.00,VWS V14.01,2013-08-02 18:06:00,
2013-08-02 11:11:00,67.6,52.8,29.96,NNW,333,2.0,6.0,59,0.00,,---,0.00,VWS V14.01,2013-08-02 18:11:00,
2013-08-02 11:16:00,68.0,52.7,29.95,NNW,348,1.0,6.0,58,0.00,,---,0.00,VWS V14.01,2013-08-02 18:16:00,
2013-08-02 11:21:00,68.1,52.8,29.96,NNW,348,1.0,6.0,58,0.00,,---,0.00,VWS V14.01,2013-08-02 18:21:00,
2013-08-02 11:26:00,68.5,52.2,29.95,NW,316,3.0,7.0,56,0.00,,---,0.00,VWS V14.01,2013-08-02 18:26:00,
2013-08-02 11:32:00,68.9,52.6,29.97,NNW,331,1.0,6.0,56,0.00,,---,0.00,VWS V14.01,2013-08-02 18:32:00,
2013-08-02 11:37:00,69.4,52.5,29.93,NW,322,1.0,6.0,55,0.00,,---,0.00,VWS V14.01,2013-08-02 18:37:00,
2013-08-02 11:42:00,69.9,53.0,29.97,WNW,300,2.0,7.0,55,0.00,,---,0.00,VWS V14.01,2013-08-02 18:42:00,
2013-08-02 11:47:00,70.3,53.4,29.96,North,1,3.0,7.0,55,0.00,,---,0.00,VWS V14.01,2013-08-02 18:47:00,
2013-08-02 11:52:00,70.7,52.8,29.94,North,354,2.0,7.0,53,0.00,,---,0.00,VWS V14.01,2013-08-02 18:52:00,
2013-08-02 11:57:00,71.0,52.5,29.95,North,350,0.0,7.0,52,0.00,,---,0.00,VWS V14.01,2013-08-02 18:57:00,
2013-08-02 12:02:00,71.4,53.4,29.97,North,350,1.0,5.0,53,0.00,,---,0.00,VWS V14.01,2013-08-02 19:02:00,
2013-08-02 12:07:00,71.9,53.3,29.94,North,0,3.0,7.0,52,0.00,,---,0.00,VWS V14.01,2013-08-02 19:07:00,
2013-08-02 12:12:00,72.4,54.3,29.94,North,0,2.0,7.0,53,0.00,,---,0.00,VWS V14.01,2013-08-02 19:12:00,
2013-08-02 12:17:00,72.9,53.2,29.95,North,0,1.0,7.0,50,0.00,,---,0.00,VWS V14.01,2013-08-02 19:17:00,
2013-08-02 12:22:00,73.4,53.7,29.93,North,0,1.0,7.0,50,0.00,,---,0.00,VWS V14.01,2013-08-02 19:22:00,
2013-08-02 12:27:00,73.8,52.9,29.94,North,351,1.0,7.0,48,0.00,,---,0.00,VWS V14.01,2013-08-02 19:27:00,
2013-08-02 12:32:00,74.1,53.7,29.94,North,0,2.0,7.0,49,0.00,,---,0.00,VWS V14.01,2013-08-02 19:32:00,
2013-08-02 12:37:00,74.6,54.8,29.93,NNE,13,2.0,7.0,50,0.00,,---,0.00,VWS V14.01,2013-08-02 19:37:00,
2013-08-02 12:42:00,75.1,53.5,29.94,NNW,336,3.0,8.0,47,0.00,,---,0.00,VWS V14.01,2013-08-02 19:42:00,
2013-08-02 12:47:00,75.3,53.1,29.95,WNW,293,1.0,8.0,46,0.00,,---,0.00,VWS V14.01,2013-08-02 19:47:00,
2013-08-02 12:53:00,75.9,53.7,29.95,WNW,300,3.0,8.0,46,0.00,,---,0.00,VWS V14.01,2013-08-02 19:53:00,
2013-08-02 12:58:00,76.2,53.9,29.94,NNW,340,4.0,8.0,46,0.00,,---,0.00,VWS V14.01,2013-08-02 19:58:00,
2013-08-02 13:03:00,76.4,54.1,29.96,West,271,2.0,6.0,46,0.00,,---,0.00,VWS V14.01,2013-08-02 20:03:00,
2013-08-02 13:08:00,76.7,55.0,29.91,NNW,333,1.0,7.0,47,0.00,,---,0.00,VWS V14.01,2013-08-02 20:08:00,
2013-08-02 13:13:00,77.1,55.3,29.95,NNW,337,4.0,9.0,47,0.00,,---,0.00,VWS V14.01,2013-08-02 20:13:00,
2013-08-02 13:18:00,77.4,55.0,29.94,North,1,5.0,9.0,46,0.00,,---,0.00,VWS V14.01,2013-08-02 20:18:00,
2013-08-02 13:23:00,77.6,54.0,29.92,NW,306,5.0,9.0,44,0.00,,---,0.00,VWS V14.01,2013-08-02 20:23:00,
2013-08-02 13:28:00,77.9,54.3,29.92,NNW,345,3.0,9.0,44,0.00,,---,0.00,VWS V14.01,2013-08-02 20:28:00,
2013-08-02 13:33:00,77.8,52.9,29.93,NNW,331,1.0,7.0,42,0.00,,---,0.00,VWS V14.01,2013-08-02 20:33:00,
2013-08-02 13:38:00,77.8,53.5,29.93,NW,316,0.0,7.0,43,0.00,,---,0.00,VWS V14.01,2013-08-02 20:38:00,
2013-08-02 13:43:00,78.0,53.1,29.91,NNW,348,4.0,12.0,42,0.00,,---,0.00,VWS V14.01,2013-08-02 20:43:00,
2013-08-02 13:48:00,78.1,54.4,29.92,WNW,295,2.0,12.0,44,0.00,,---,0.00,VWS V14.01,2013-08-02 20:48:00,
2013-08-02 13:53:00,78.5,52.9,29.93,North,6,4.0,12.0,41,0.00,,---,0.00,VWS V14.01,2013-08-02 20:53:00,
2013-08-02 13:59:00,79.1,54.1,29.93,North,0,3.0,12.0,42,0.00,,---,0.00,VWS V14.01,2013-08-02 20:59:00,
2013-08-02 14:04:00,79.3,52.9,29.93,North,0,3.0,8.0,40,0.00,,---,0.00,VWS V14.01,2013-08-02 21:04:00,
2013-08-02 14:09:00,79.6,53.2,29.94,NNW,336,3.0,8.0,40,0.00,,---,0.00,VWS V14.01,2013-08-02 21:09:00,
2013-08-02 14:14:00,79.8,52.7,29.91,NW,326,4.0,8.0,39,0.00,,---,0.00,VWS V14.01,2013-08-02 21:14:00,
2013-08-02 14:19:00,79.9,53.5,29.93,NW,316,5.0,8.0,40,0.00,,---,0.00,VWS V14.01,2013-08-02 21:19:00,
2013-08-02 14:24:00,80.4,53.9,29.92,NW,317,2.0,8.0,40,0.00,,---,0.00,VWS V14.01,2013-08-02 21:24:00,
2013-08-02 14:29:00,80.9,54.3,29.92,NW,326,0.0,8.0,40,0.00,,---,0.00,VWS V14.01,2013-08-02 21:29:00,
2013-08-02 14:34:00,81.1,53.8,29.91,SW,233,3.0,9.0,39,0.00,,---,0.00,VWS V14.01,2013-08-02 21:34:00,
2013-08-02 14:39:00,81.1,53.8,29.91,NNW,336,3.0,9.0,39,0.00,,---,0.00,VWS V14.01,2013-08-02 21:39:00,
2013-08-02 14:44:00,81.3,55.4,29.92,NW,319,4.0,9.0,41,0.00,,---,0.00,VWS V14.01,2013-08-02 21:44:00,
2013-08-02 14:49:00,81.3,53.3,29.90,WNW,287,5.0,9.0,38,0.00,,---,0.00,VWS V14.01,2013-08-02 21:49:00,
2013-08-02 14:55:00,81.4,53.4,29.88,NNW,334,6.0,9.0,38,0.00,,---,0.00,VWS V14.01,2013-08-02 21:55:00,
2013-08-02 15:00:00,81.5,52.7,29.92,WNW,292,4.0,9.0,37,0.00,,---,0.00,VWS V14.01,2013-08-02 22:00:00,
2013-08-02 15:05:00,81.7,53.7,29.91,WNW,293,4.0,9.0,38,0.00,,---,0.00,VWS V14.01,2013-08-02 22:05:00,
2013-08-02 15:10:00,81.7,53.7,29.90,WNW,286,5.0,9.0,38,0.00,,---,0.00,VWS V14.01,2013-08-02 22:10:00,
2013-08-02 15:15:00,81.7,53.7,29.91,WNW,287,4.0,9.0,38,0.00,,---,0.00,VWS V14.01,2013-08-02 22:15:00,
2013-08-02 15:20:00,81.8,53.0,29.90,SW,223,5.0,9.0,37,0.00,,---,0.00,VWS V14.01,2013-08-02 22:20:00,
2013-08-02 15:25:00,81.8,52.3,29.90,West,271,4.0,9.0,36,0.00,,---,0.00,VWS V14.01,2013-08-02 22:25:00,
2013-08-02 15:30:00,81.7,52.9,29.89,WNW,287,2.0,4.0,37,0.00,,---,0.00,VWS V14.01,2013-08-02 22:30:00,
2013-08-02 15:35:00,81.6,54.3,29.91,WNW,297,3.0,7.0,39,0.00,,---,0.00,VWS V14.01,2013-08-02 22:35:00,
2013-08-02 15:40:00,81.7,52.2,29.89,NW,321,5.0,9.0,36,0.00,,---,0.00,VWS V14.01,2013-08-02 22:40:00,
2013-08-02 15:45:00,81.3,51.8,29.89,WSW,238,2.0,9.0,36,0.00,,---,0.00,VWS V14.01,2013-08-02 22:45:00,
2013-08-02 15:50:00,81.1,53.8,29.89,North,359,2.0,9.0,39,0.00,,---,0.00,VWS V14.01,2013-08-02 22:50:00,
2013-08-02 15:55:00,80.9,53.7,29.89,North,5,5.0,9.0,39,0.00,,---,0.00,VWS V14.01,2013-08-02 22:55:00,
2013-08-02 16:00:00,80.7,52.8,29.89,WNW,302,4.0,4.0,38,0.00,,---,0.00,VWS V14.01,2013-08-02 23:00:00,
2013-08-02 16:05:00,81.2,54.6,29.90,North,0,0.0,12.0,40,0.00,,---,0.00,VWS V14.01,2013-08-02 23:05:00,
2013-08-02 16:10:00,81.3,52.6,29.90,WNW,286,5.0,12.0,37,0.00,,---,0.00,VWS V14.01,2013-08-02 23:10:00,
2013-08-02 16:15:00,80.9,52.2,29.90,NNW,338,4.0,12.0,37,0.00,,---,0.00,VWS V14.01,2013-08-02 23:15:00,
2013-08-02 16:21:00,80.6,52.7,29.88,NNW,336,2.0,12.0,38,0.00,,---,0.00,VWS V14.01,2013-08-02 23:21:00,
2013-08-02 16:26:00,80.5,53.3,29.90,WNW,291,1.0,12.0,39,0.00,,---,0.00,VWS V14.01,2013-08-02 23:26:00,
2013-08-02 16:31:00,80.5,53.3,29.90,West,262,4.0,7.0,39,0.00,,---,0.00,VWS V14.01,2013-08-02 23:31:00,
2013-08-02 16:36:00,80.1,52.9,29.89,West,260,2.0,8.0,39,0.00,,---,0.00,VWS V14.01,2013-08-02 23:36:00,
2013-08-02 16:41:00,80.2,53.0,29.89,NW,315,2.0,9.0,39,0.00,,---,0.00,VWS V14.01,2013-08-02 23:41:00,
2013-08-02 16:46:00,80.3,53.8,29.90,NW,309,2.0,9.0,40,0.00,,---,0.00,VWS V14.01,2013-08-02 23:46:00,
2013-08-02 16:51:00,80.5,51.9,29.90,NNW,335,2.0,9.0,37,0.00,,---,0.00,VWS V14.01,2013-08-02 23:51:00,
2013-08-02 16:56:00,80.6,52.7,29.90,NW,326,2.0,9.0,38,0.00,,---,0.00,VWS V14.01,2013-08-02 23:56:00,
2013-08-02 17:01:00,80.6,52.0,29.90,NNW,328,0.0,6.0,37,0.00,,---,0.00,VWS V14.01,2013-08-03 00:01:00,
2013-08-02 17:06:00,80.3,51.7,29.89,WNW,302,3.0,6.0,37,0.00,,---,0.00,VWS V14.01,2013-08-03 00:06:00,
2013-08-02 17:11:00,79.9,51.3,29.87,WNW,301,0.0,7.0,37,0.00,,---,0.00,VWS V14.01,2013-08-03 00:11:00,
2013-08-02 17:16:00,80.1,52.9,29.90,North,354,2.0,7.0,39,0.00,,---,0.00,VWS V14.01,2013-08-03 00:16:00,
2013-08-02 17:21:00,80.0,52.8,29.90,North,350,6.0,7.0,39,0.00,,---,0.00,VWS V14.01,2013-08-03 00:21:00,
2013-08-02 17:27:00,79.7,51.2,29.92,WNW,296,3.0,7.0,37,0.00,,---,0.00,VWS V14.01,2013-08-03 00:27:00,
2013-08-02 17:32:00,79.3,51.5,29.91,NNW,334,4.0,8.0,38,0.00,,---,0.00,VWS V14.01,2013-08-03 00:32:00,
2013-08-02 17:37:00,79.1,52.0,29.87,West,263,0.0,8.0,39,0.00,,---,0.00,VWS V14.01,2013-08-03 00:37:00,
2013-08-02 17:42:00,78.7,52.4,29.88,NW,307,4.0,8.0,40,0.00,,---,0.00,VWS V14.01,2013-08-03 00:42:00,
2013-08-02 17:47:00,78.1,51.8,29.88,North,6,4.0,9.0,40,0.00,,---,0.00,VWS V14.01,2013-08-03 00:47:00,
2013-08-02 17:52:00,78.2,53.9,29.88,NNW,343,5.0,9.0,43,0.00,,---,0.00,VWS V14.01,2013-08-03 00:52:00,
2013-08-02 17:57:00,77.9,52.3,29.89,NNW,344,2.0,9.0,41,0.00,,---,0.00,VWS V14.01,2013-08-03 00:57:00,
2013-08-02 18:02:00,77.8,52.2,29.89,NNW,329,1.0,7.0,41,0.00,,---,0.00,VWS V14.01,2013-08-03 01:02:00,
2013-08-02 18:08:00,77.6,53.4,29.91,NNW,333,4.0,9.0,43,0.00,,---,0.00,VWS V14.01,2013-08-03 01:08:00,
2013-08-02 18:13:00,77.4,53.2,29.91,North,10,2.0,9.0,43,0.00,,---,0.00,VWS V14.01,2013-08-03 01:13:00,
2013-08-02 18:18:00,76.9,52.7,29.89,NNW,338,4.0,9.0,43,0.00,,---,0.00,VWS V14.01,2013-08-03 01:18:00,
2013-08-02 18:23:00,76.1,52.6,29.88,NW,326,1.0,9.0,44,0.00,,---,0.00,VWS V14.01,2013-08-03 01:23:00,
2013-08-02 18:28:00,75.8,52.4,29.90,North,0,1.0,9.0,44,0.00,,---,0.00,VWS V14.01,2013-08-03 01:28:00,
2013-08-02 18:33:00,75.1,51.7,29.88,North,0,1.0,7.0,44,0.00,,---,0.00,VWS V14.01,2013-08-03 01:33:00,
2013-08-02 18:38:00,74.7,51.4,29.90,West,279,2.0,7.0,44,0.00,,---,0.00,VWS V14.01,2013-08-03 01:38:00,
2013-08-02 18:43:00,73.8,51.2,29.90,NNW,330,3.0,8.0,45,0.00,,---,0.00,VWS V14.01,2013-08-03 01:43:00,
2013-08-02 18:48:00,73.1,51.1,29.89,NNW,332,3.0,8.0,46,0.00,,---,0.00,VWS V14.01,2013-08-03 01:48:00,
2013-08-02 18:53:00,72.2,50.3,29.89,NW,309,3.0,8.0,46,0.00,,---,0.00,VWS V14.01,2013-08-03 01:53:00,
2013-08-02 18:58:00,71.3,50.6,29.92,North,358,2.0,9.0,48,0.00,,---,0.00,VWS V14.01,2013-08-03 01:58:00,
2013-08-02 19:03:00,70.5,51.0,29.93,North,357,3.0,7.0,50,0.00,,---,0.00,VWS V14.01,2013-08-03 02:03:00,
2013-08-02 19:08:00,69.8,50.9,29.91,NW,312,4.0,7.0,51,0.00,,---,0.00,VWS V14.01,2013-08-03 02:08:00,
2013-08-02 19:14:00,68.9,50.6,29.90,WNW,282,6.0,10.0,52,0.00,,---,0.00,VWS V14.01,2013-08-03 02:14:00,
2013-08-02 19:19:00,68.0,51.2,29.91,WNW,292,3.0,10.0,55,0.00,,---,0.00,VWS V14.01,2013-08-03 02:19:00,
2013-08-02 19:24:00,67.4,51.2,29.88,NW,308,6.0,10.0,56,0.00,,---,0.00,VWS V14.01,2013-08-03 02:24:00,
2013-08-02 19:29:00,67.1,50.4,29.91,North,352,3.0,10.0,55,0.00,,---,0.00,VWS V14.01,2013-08-03 02:29:00,
2013-08-02 19:34:00,66.7,50.5,29.88,NNW,348,1.0,8.0,56,0.00,,---,0.00,VWS V14.01,2013-08-03 02:34:00,
2013-08-02 19:39:00,66.4,50.2,29.92,NW,321,5.0,11.0,56,0.00,,---,0.00,VWS V14.01,2013-08-03 02:39:00,
2013-08-02 19:44:00,66.2,50.1,29.90,NNW,346,3.0,11.0,56,0.00,,---,0.00,VWS V14.01,2013-08-03 02:44:00,
2013-08-02 19:49:00,66.0,49.9,29.90,NNW,332,6.0,11.0,56,0.00,,---,0.00,VWS V14.01,2013-08-03 02:49:00,
2013-08-02 19:54:00,65.8,49.2,29.92,NNW,335,2.0,11.0,55,0.00,,---,0.00,VWS V14.01,2013-08-03 02:54:00,
2013-08-02 19:59:00,65.7,49.1,29.91,NNW,336,2.0,11.0,55,0.00,,---,0.00,VWS V14.01,2013-08-03 02:59:00,
2013-08-02 20:04:00,65.6,48.5,29.91,NNW,336,1.0,5.0,54,0.00,,---,0.00,VWS V14.01,2013-08-03 03:04:00,
2013-08-02 20:09:00,65.5,49.4,29.90,NNW,340,3.0,6.0,56,0.00,,---,0.00,VWS V14.01,2013-08-03 03:09:00,
2013-08-02 20:14:00,65.1,49.0,29.93,North,350,5.0,7.0,56,0.00,,---,0.00,VWS V14.01,2013-08-03 03:14:00,
2013-08-02 20:19:00,64.6,49.0,29.91,North,353,0.0,7.0,57,0.00,,---,0.00,VWS V14.01,2013-08-03 03:19:00,
2013-08-02 20:24:00,64.0,49.4,29.89,NNW,344,5.0,9.0,59,0.00,,---,0.00,VWS V14.01,2013-08-03 03:24:00,
2013-08-02 20:30:00,63.3,49.6,29.88,NNW,337,2.0,9.0,61,0.00,,---,0.00,VWS V14.01,2013-08-03 03:30:00,
2013-08-02 20:35:00,63.0,49.8,29.89,NNW,333,4.0,6.0,62,0.00,,---,0.00,VWS V14.01,2013-08-03 03:35:00,
2013-08-02 20:40:00,62.5,49.8,29.93,NNW,336,2.0,6.0,63,0.00,,---,0.00,VWS V14.01,2013-08-03 03:40:00,
2013-08-02 20:45:00,62.2,49.9,29.94,NNW,336,3.0,6.0,64,0.00,,---,0.00,VWS V14.01,2013-08-03 03:45:00,
2013-08-02 20:50:00,61.9,49.6,29.91,NNW,336,0.0,6.0,64,0.00,,---,0.00,VWS V14.01,2013-08-03 03:50:00,
2013-08-02 20:55:00,61.8,49.9,29.91,NNW,336,4.0,6.0,65,0.00,,---,0.00,VWS V14.01,2013-08-03 03:55:00,
2013-08-02 21:00:00,61.5,49.6,29.93,NNW,338,3.0,3.0,65,0.00,,---,0.00,VWS V14.01,2013-08-03 04:00:00,
2013-08-02 21:01:00,61.5,49.6,29.90,NNW,344,4.0,5.0,65,0.00,,---,0.00,VWS V14.01,2013-08-03 04:01:00,
2013-08-02 21:02:00,61.3,49.9,29.90,North,349,3.0,5.0,66,0.00,,---,0.00,VWS V14.01,2013-08-03 04:02:00,
2013-08-02 21:04:00,61.3,50.3,29.93,North,356,4.0,9.0,67,0.00,,---,0.00,VWS V14.01,2013-08-03 04:04:00,
2013-08-02 21:09:00,60.9,50.3,29.90,North,354,0.0,9.0,68,0.00,,---,0.00,VWS V14.01,2013-08-03 04:09:00,
2013-08-02 21:14:00,60.5,49.9,29.96,North,349,4.0,9.0,68,0.00,,---,0.00,VWS V14.01,2013-08-03 04:14:00,
2013-08-02 21:19:00,60.2,50.0,29.92,North,350,1.0,9.0,69,0.00,,---,0.00,VWS V14.01,2013-08-03 04:19:00,
2013-08-02 21:24:00,60.0,50.2,29.93,North,350,1.0,9.0,70,0.00,,---,0.00,VWS V14.01,2013-08-03 04:24:00,
2013-08-02 21:29:00,59.7,49.9,29.92,North,351,0.0,9.0,70,0.00,,---,0.00,VWS V14.01,2013-08-03 04:29:00,
2013-08-02 21:34:00,59.4,49.6,29.91,North,350,4.0,4.0,70,0.00,,---,0.00,VWS V14.01,2013-08-03 04:34:00,
2013-08-02 21:39:00,59.1,49.7,29.92,North,350,2.0,4.0,71,0.00,,---,0.00,VWS V14.01,2013-08-03 04:39:00,
2013-08-02 21:44:00,58.9,49.5,29.92,North,351,1.0,5.0,71,0.00,,---,0.00,VWS V14.01,2013-08-03 04:44:00,
2013-08-02 21:49:00,58.8,49.4,29.94,North,351,1.0,5.0,71,0.00,,---,0.00,VWS V14.01,2013-08-03 04:49:00,
2013-08-02 21:54:00,58.5,49.5,29.93,North,350,3.0,5.0,72,0.00,,---,0.00,VWS V14.01,2013-08-03 04:54:00,
2013-08-02 21:59:00,58.5,49.9,29.95,North,351,3.0,5.0,73,0.00,,---,0.00,VWS V14.01,2013-08-03 04:59:00,
2013-08-02 22:04:00,58.2,49.6,29.94,North,358,3.0,6.0,73,0.00,,---,0.00,VWS V14.01,2013-08-03 05:04:00,
2013-08-02 22:09:00,58.0,49.4,29.93,NNW,337,0.0,6.0,73,0.00,,---,0.00,VWS V14.01,2013-08-03 05:09:00,
2013-08-02 22:14:00,57.7,49.5,29.92,NNW,337,1.0,6.0,74,0.00,,---,0.00,VWS V14.01,2013-08-03 05:14:00,
2013-08-02 22:19:00,57.5,49.7,29.94,NNW,338,4.0,6.0,75,0.00,,---,0.00,VWS V14.01,2013-08-03 05:19:00,
2013-08-02 22:24:00,57.3,49.8,29.93,NNW,338,2.0,6.0,76,0.00,,---,0.00,VWS V14.01,2013-08-03 05:24:00,
2013-08-02 22:30:00,56.9,49.4,29.94,NNW,345,3.0,6.0,76,0.00,,---,0.00,VWS V14.01,2013-08-03 05:30:00,
2013-08-02 22:35:00,56.7,49.6,29.94,NNW,347,1.0,6.0,77,0.00,,---,0.00,VWS V14.01,2013-08-03 05:35:00,
2013-08-02 22:40:00,56.4,49.3,29.93,North,349,3.0,6.0,77,0.00,,---,0.00,VWS V14.01,2013-08-03 05:40:00,
2013-08-02 22:45:00,56.3,49.5,29.92,North,349,2.0,6.0,78,0.00,,---,0.00,VWS V14.01,2013-08-03 05:45:00,
2013-08-02 22:50:00,56.1,49.7,29.94,North,349,2.0,6.0,79,0.00,,---,0.00,VWS V14.01,2013-08-03 05:50:00,
2013-08-02 22:55:00,56.1,49.7,29.93,North,349,1.0,6.0,79,0.00,,---,0.00,VWS V14.01,2013-08-03 05:55:00,
2013-08-02 23:00:00,55.9,49.5,29.93,North,349,2.0,4.0,79,0.00,,---,0.00,VWS V14.01,2013-08-03 06:00:00,
2013-08-02 23:05:00,56.0,49.6,29.93,North,349,3.0,4.0,79,0.00,,---,0.00,VWS V14.01,2013-08-03 06:05:00,
2013-08-02 23:10:00,56.0,49.9,29.93,North,349,2.0,5.0,80,0.00,,---,0.00,VWS V14.01,2013-08-03 06:10:00,
2013-08-02 23:15:00,56.0,49.9,29.93,North,349,0.0,5.0,80,0.00,,---,0.00,VWS V14.01,2013-08-03 06:15:00,
2013-08-02 23:20:00,56.0,49.9,29.94,North,349,1.0,5.0,80,0.00,,---,0.00,VWS V14.01,2013-08-03 06:20:00,
2013-08-02 23:25:00,56.0,49.9,29.94,North,349,0.0,5.0,80,0.00,,---,0.00,VWS V14.01,2013-08-03 06:25:00,
2013-08-02 23:30:00,55.9,49.8,29.92,North,349,2.0,3.0,80,0.00,,---,0.00,VWS V14.01,2013-08-03 06:30:00,
2013-08-02 23:35:00,56.1,50.0,29.95,North,349,1.0,4.0,80,0.00,,---,0.00,VWS V14.01,2013-08-03 06:35:00,
2013-08-02 23:40:00,56.0,49.9,29.91,North,349,1.0,4.0,80,0.00,,---,0.00,VWS V14.01,2013-08-03 06:40:00,
2013-08-02 23:45:00,56.1,49.7,29.94,North,349,0.0,4.0,79,0.00,,---,0.00,VWS V14.01,2013-08-03 06:45:00,
2013-08-02 23:50:00,56.1,49.7,29.94,North,349,0.0,4.0,79,0.00,,---,0.00,VWS V14.01,2013-08-03 06:50:00,
2013-08-02 23:55:00,56.1,49.7,29.93,North,349,1.0,4.0,79,0.00,,---,0.00,VWS V14.01,2013-08-03 06:55:00,